Satellite: SRMSAT Catalog number: 37841 Epoch time: 12095.34962776 Element set: 0123 Inclination: 019.9727 deg RA of node: 088.9725 deg Eccentricity: 0.0011749 Arg of perigee: 101.1213 deg Mean anomaly: 259.0705 deg Mean motion: 14.10126571 rev/day Decay rate: 2.64e-06 rev/day^2 Epoch rev: 02476 Checksum: 291
Satellite: RAX-2 Catalog number: 37853 Epoch time: 12095.95485620 Element set: 0155 Inclination: 101.7182 deg RA of node: 102.8330 deg Eccentricity: 0.0249538 Arg of perigee: 199.5452 deg Mean anomaly: 159.6048 deg Mean motion: 14.79301897 rev/day Decay rate: 2.939e-05 rev/day^2 Epoch rev: 02357 Checksum: 329
Satellite: AUBIESAT Catalog number: 37854 Epoch time: 12095.92728204 Element set: 0154 Inclination: 101.7182 deg RA of node: 102.9488 deg Eccentricity: 0.0251263 Arg of perigee: 198.9272 deg Mean anomaly: 160.2466 deg Mean motion: 14.79633888 rev/day Decay rate: 3.553e-05 rev/day^2 Epoch rev: 02355 Checksum: 318
Satellite: HRBE Catalog number: 37855 Epoch time: 12095.93455031 Element set: 0155 Inclination: 101.7197 deg RA of node: 102.9349 deg Eccentricity: 0.0251687 Arg of perigee: 198.9776 deg Mean anomaly: 160.1929 deg Mean motion: 14.79520111 rev/day Decay rate: 3.427e-05 rev/day^2 Epoch rev: 02355 Checksum: 314
Satellite: RS-39 Catalog number: 38051 Epoch time: 12096.52760373 Element set: 218 Inclination: 051.6381 deg RA of node: 145.7740 deg Eccentricity: 0.0010877 Arg of perigee: 133.7813 deg Mean anomaly: 007.5461 deg Mean motion: 15.23061651 rev/day Decay rate: 7.804e-05 rev/day^2 Epoch rev: 1089 Checksum: 291
Satellite: E-STAR Catalog number: 38079 Epoch time: 12096.16205389 Element set: 127 Inclination: 069.4831 deg RA of node: 121.9929 deg Eccentricity: 0.0767155 Arg of perigee: 339.7252 deg Mean anomaly: 017.4656 deg Mean motion: 14.09391724 rev/day Decay rate: 4.9964e-04 rev/day^2 Epoch rev: 727 Checksum: 340
Satellite: GOLIAT Catalog number: 38085 Epoch time: 12096.46343182 Element set: 124 Inclination: 069.4860 deg RA of node: 121.3796 deg Eccentricity: 0.0768018 Arg of perigee: 339.3195 deg Mean anomaly: 017.8312 deg Mean motion: 14.08792186 rev/day Decay rate: 4.8927e-04 rev/day^2 Epoch rev: 731 Checksum: 321
/EX